Location: Newark
(59.4564°N, 26.6917°E)
Time: 02:31:57
(UTC+00:00)

SR - Pass Details

Date: 24 November 2019
Orbit: 573 x 882 km, 66.7° (Epoch: 06 December)

Event Time Altitude Azimuth Distance (km) Brightness Sun altitude
Rises 14:49:48 0° 262° (W) 3,356 ? -9.2°
Reaches altitude 10° 14:52:17 10° 268° (W) 2,461 ? -9.5°
Maximum altitude 14:57:51 48° 343° (NNW) 1,131 ? -10.1°
Enters shadow 15:02:58 13° 55° (NE) 2,332 ? -10.7°
Drops below altitude 10° 15:03:37 10° 57° (ENE) 2,552 - -10.8°
Sets 15:06:14 0° 64° (ENE) 3,491 - -11.1°
